FDX1499 KMEM-KELP

Flight info

Callsign FDX1499
Flight time 2h 12m
Altitude 40000
Route CHLDR5 ANSWA BYP BGS LIFFT SAMMR3
Aircraft B77L/H-SDE1E2E3FGHIJ2J3J4J5M1RWXY/LB1D1

Departure

Time 2026-04-24 21:16
Airport Memphis International Airport (KMEM)

Arrival

Time 2026-04-24 23:28
Airport El Paso International Airport (KELP)
Time Latitude Longitude Altitude Speed Heading
2026-04-24 20:12 35.02755 -89.97932 330 ft 0 kts 269°
2026-04-24 20:23 35.06025 -89.97354 331 ft 0 kts
2026-04-24 21:04 35.06000 -89.97354 335 ft 4 kts 354°
2026-04-24 21:04 35.05974 -89.97349 330 ft 4 kts 343°
2026-04-24 21:04 35.05949 -89.97336 334 ft 4 kts 320°
2026-04-24 21:05 35.05937 -89.97316 335 ft 2 kts 272°
2026-04-24 21:05 35.05937 -89.97315 335 ft 0 kts 272°
2026-04-24 21:09 35.05937 -89.97318 335 ft 1 kts 272°
2026-04-24 21:09 35.05937 -89.97319 335 ft 0 kts 272°
2026-04-24 21:10 35.05938 -89.97343 335 ft 1 kts 272°
2026-04-24 21:11 35.05940 -89.97396 335 ft 9 kts 272°
2026-04-24 21:11 35.05923 -89.97481 335 ft 12 kts 226°
2026-04-24 21:11 35.05843 -89.97487 336 ft 13 kts 173°
2026-04-24 21:11 35.05753 -89.97487 335 ft 12 kts 181°
2026-04-24 21:12 35.05673 -89.97488 335 ft 11 kts 180°
2026-04-24 21:12 35.05626 -89.97488 332 ft 10 kts 180°
2026-04-24 21:12 35.05541 -89.97487 332 ft 8 kts 179°
2026-04-24 21:12 35.05501 -89.97501 331 ft 0 kts 213°
2026-04-24 21:13 35.05497 -89.97505 328 ft 2 kts 214°
2026-04-24 21:13 35.05454 -89.97557 329 ft 12 kts 229°
2026-04-24 21:14 35.05383 -89.97614 326 ft 12 kts 190°
2026-04-24 21:14 35.05363 -89.97615 330 ft 0 kts 179°
2026-04-24 21:15 35.05209 -89.97613 325 ft 65 kts 179°
2026-04-24 21:15 35.04471 -89.97600 327 ft 144 kts 179°
2026-04-24 21:15 35.03303 -89.97563 574 ft 184 kts 179°
2026-04-24 21:16 35.01955 -89.97552 1221 ft 198 kts 178°
2026-04-24 21:16 35.00618 -89.97504 2330 ft 188 kts 176°
2026-04-24 21:16 34.99317 -89.97549 3038 ft 198 kts 197°
2026-04-24 21:16 34.98035 -89.98428 3326 ft 228 kts 212°
2026-04-24 21:17 34.96591 -89.99500 3836 ft 252 kts 211°
2026-04-24 21:17 34.95161 -90.00767 4596 ft 257 kts 229°
2026-04-24 21:17 34.94311 -90.02688 4980 ft 262 kts 252°
2026-04-24 21:17 34.94100 -90.04142 4971 ft 264 kts 265°
2026-04-24 21:18 34.94089 -90.07153 5966 ft 268 kts 269°
2026-04-24 21:18 34.94113 -90.09428 7074 ft 269 kts 269°
2026-04-24 21:18 34.94124 -90.11710 8096 ft 271 kts 266°
2026-04-24 21:18 34.93989 -90.14022 9074 ft 275 kts 264°
2026-04-24 21:19 34.93809 -90.16355 10088 ft 276 kts 264°
2026-04-24 21:19 34.93633 -90.18730 10785 ft 292 kts 264°
2026-04-24 21:19 34.93455 -90.21321 11069 ft 324 kts 264°
2026-04-24 21:19 34.93263 -90.24172 11408 ft 349 kts 265°
2026-04-24 21:20 34.92913 -90.30125 13591 ft 360 kts 266°
2026-04-24 21:20 34.92808 -90.33178 14710 ft 361 kts 266°
2026-04-24 21:20 34.92650 -90.36242 15664 ft 365 kts 266°
2026-04-24 21:21 34.92461 -90.39361 16621 ft 371 kts 265°
2026-04-24 21:21 34.92260 -90.42490 17758 ft 372 kts 266°
2026-04-24 21:21 34.92057 -90.45651 18712 ft 376 kts 266°
2026-04-24 21:21 34.91852 -90.48866 19525 ft 384 kts 266°
2026-04-24 21:22 34.91657 -90.52140 20324 ft 391 kts 266°
2026-04-24 21:22 34.91468 -90.55471 21104 ft 397 kts 266°
2026-04-24 21:22 34.91276 -90.58852 21881 ft 403 kts 266°
2026-04-24 21:22 34.91141 -90.61165 22404 ft 407 kts 266°
2026-04-24 21:23 34.90871 -90.65763 23362 ft 415 kts 266°
2026-04-24 21:23 34.90662 -90.69295 24059 ft 421 kts 266°
2026-04-24 21:23 34.90444 -90.72871 24738 ft 426 kts 265°
2026-04-24 21:23 34.90048 -90.76476 25388 ft 433 kts 260°
2026-04-24 21:24 34.89456 -90.80091 26057 ft 437 kts 258°
2026-04-24 21:24 34.88843 -90.83739 26711 ft 442 kts 259°
2026-04-24 21:24 34.88246 -90.87436 27340 ft 447 kts 259°
2026-04-24 21:24 34.87660 -90.91174 27926 ft 452 kts 259°
2026-04-24 21:25 34.87074 -90.94957 28492 ft 457 kts 259°
2026-04-24 21:25 34.86484 -90.98781 29037 ft 462 kts 259°
2026-04-24 21:25 34.85892 -91.02640 29588 ft 466 kts 259°
2026-04-24 21:25 34.85293 -91.06535 30092 ft 470 kts 258°
2026-04-24 21:26 34.84688 -91.10460 30576 ft 474 kts 258°
2026-04-24 21:26 34.84077 -91.14416 31023 ft 477 kts 258°
2026-04-24 21:26 34.83459 -91.18400 31454 ft 480 kts 258°
2026-04-24 21:26 34.83047 -91.21048 31755 ft 481 kts 258°
2026-04-24 21:27 34.82424 -91.25046 32309 ft 480 kts 258°
2026-04-24 21:27 34.81802 -91.29032 32904 ft 478 kts 257°
2026-04-24 21:27 34.80979 -91.34280 33654 ft 476 kts 257°
2026-04-24 21:27 34.80560 -91.36947 33991 ft 475 kts 257°
2026-04-24 21:28 34.79939 -91.40896 34472 ft 475 kts 257°
2026-04-24 21:28 34.79318 -91.44833 35005 ft 473 kts 257°
2026-04-24 21:28 34.78700 -91.48747 35586 ft 469 kts 256°
2026-04-24 21:28 34.78085 -91.52626 36129 ft 466 kts 256°
2026-04-24 21:29 34.77473 -91.56483 36605 ft 464 kts 256°
2026-04-24 21:29 34.76861 -91.60331 37031 ft 462 kts 256°
2026-04-24 21:29 34.76252 -91.64155 37572 ft 458 kts 256°
2026-04-24 21:29 34.75648 -91.67944 37954 ft 457 kts 256°
2026-04-24 21:30 34.75040 -91.71741 37924 ft 456 kts 256°
2026-04-24 21:30 34.73806 -91.79206 37937 ft 445 kts 253°
2026-04-24 21:31 34.72109 -91.86340 37991 ft 440 kts 251°
2026-04-24 21:31 34.70292 -91.93213 37964 ft 442 kts 250°
2026-04-24 21:32 34.68443 -92.00327 37949 ft 446 kts 250°
2026-04-24 21:32 34.66609 -92.07553 37953 ft 448 kts 252°
2026-04-24 21:32 34.65790 -92.10809 37725 ft 438 kts 252°
2026-04-24 21:33 34.64909 -92.14320 38143 ft 435 kts 255°
2026-04-24 21:33 34.63116 -92.21452 38032 ft 446 kts 251°
2026-04-24 21:34 34.61295 -92.28648 37980 ft 445 kts 251°
2026-04-24 21:34 34.59479 -92.35813 37961 ft 443 kts 251°
2026-04-24 21:35 34.57667 -92.42939 37957 ft 442 kts 251°
2026-04-24 21:35 34.55853 -92.50051 37952 ft 441 kts 251°
2026-04-24 21:36 34.54038 -92.57148 37957 ft 440 kts 251°
2026-04-24 21:36 34.52221 -92.64239 37955 ft 440 kts 251°
2026-04-24 21:37 34.50397 -92.71329 37958 ft 441 kts 251°
2026-04-24 21:37 34.48569 -92.78423 37953 ft 441 kts 251°
2026-04-24 21:38 34.46735 -92.85528 37943 ft 442 kts 251°
2026-04-24 21:38 34.44893 -92.92634 37953 ft 442 kts 251°
2026-04-24 21:39 34.43047 -92.99738 37949 ft 442 kts 251°
2026-04-24 21:39 34.41197 -93.06839 37956 ft 442 kts 251°
2026-04-24 21:40 34.39342 -93.13941 37953 ft 442 kts 252°
2026-04-24 21:40 34.37483 -93.21038 37946 ft 442 kts 252°
2026-04-24 21:41 34.35621 -93.28138 37951 ft 442 kts 252°
2026-04-24 21:41 34.33755 -93.35221 37937 ft 442 kts 252°
2026-04-24 21:42 34.31887 -93.42296 37938 ft 441 kts 252°
2026-04-24 21:42 34.30019 -93.49357 37928 ft 440 kts 252°
2026-04-24 21:43 34.28153 -93.56389 37931 ft 439 kts 252°
2026-04-24 21:43 34.26285 -93.63408 37925 ft 438 kts 252°
2026-04-24 21:44 34.24414 -93.70423 37916 ft 438 kts 253°
2026-04-24 21:44 34.22551 -93.77391 37915 ft 439 kts 253°
2026-04-24 21:45 34.20673 -93.84401 37908 ft 439 kts 253°
2026-04-24 21:45 34.18790 -93.91407 37905 ft 439 kts 253°
2026-04-24 21:46 34.16897 -93.98430 37901 ft 439 kts 253°
2026-04-24 21:46 34.15002 -94.05452 37894 ft 440 kts 253°
2026-04-24 21:47 34.13101 -94.12473 37876 ft 440 kts 253°
2026-04-24 21:47 34.11192 -94.19495 37872 ft 440 kts 253°
2026-04-24 21:48 34.09283 -94.26503 37863 ft 440 kts 253°
2026-04-24 21:48 34.07373 -94.33505 37858 ft 439 kts 253°
2026-04-24 21:49 34.05458 -94.40507 37854 ft 439 kts 253°
2026-04-24 21:49 34.03542 -94.47493 37862 ft 439 kts 253°
2026-04-24 21:50 34.01624 -94.54466 37857 ft 438 kts 252°
2026-04-24 21:50 33.99703 -94.61432 37860 ft 438 kts 253°
2026-04-24 21:51 33.97782 -94.68380 37860 ft 436 kts 253°
2026-04-24 21:51 33.95864 -94.75307 37857 ft 435 kts 253°
2026-04-24 21:52 33.93961 -94.82162 37856 ft 434 kts 253°
2026-04-24 21:52 33.92044 -94.89043 37861 ft 433 kts 253°
2026-04-24 21:53 33.90130 -94.95900 37859 ft 432 kts 254°
2026-04-24 21:53 33.88218 -95.02740 37859 ft 431 kts 254°
2026-04-24 21:54 33.86307 -95.09552 37848 ft 430 kts 254°
2026-04-24 21:54 33.84392 -95.16357 37848 ft 429 kts 254°
2026-04-24 21:55 33.82480 -95.23146 37845 ft 429 kts 254°
2026-04-24 21:55 33.80564 -95.29930 37838 ft 428 kts 254°
2026-04-24 21:56 33.78649 -95.36700 37835 ft 428 kts 254°
2026-04-24 21:56 33.76728 -95.43459 37831 ft 427 kts 254°
2026-04-24 21:57 33.74807 -95.50210 37829 ft 427 kts 254°
2026-04-24 21:57 33.72884 -95.56957 37829 ft 427 kts 254°
2026-04-24 21:58 33.70957 -95.63704 37830 ft 427 kts 254°
2026-04-24 21:58 33.69024 -95.70450 37831 ft 427 kts 254°
2026-04-24 21:59 33.67088 -95.77194 37830 ft 427 kts 254°
2026-04-24 21:59 33.65148 -95.83932 37828 ft 427 kts 254°
2026-04-24 22:00 33.63205 -95.90661 37830 ft 426 kts 253°
2026-04-24 22:00 33.61261 -95.97387 37824 ft 427 kts 253°
2026-04-24 22:01 33.59316 -96.04107 37823 ft 426 kts 254°
2026-04-24 22:01 33.57365 -96.10821 37820 ft 426 kts 253°
2026-04-24 22:02 33.55413 -96.17522 37822 ft 425 kts 253°
2026-04-24 22:02 33.53524 -96.24228 37819 ft 423 kts 257°
2026-04-24 22:03 33.52172 -96.31019 37821 ft 421 kts 259°
2026-04-24 22:03 33.50847 -96.37858 37826 ft 421 kts 259°
2026-04-24 22:04 33.49510 -96.44685 37822 ft 420 kts 259°
2026-04-24 22:04 33.48164 -96.51497 37820 ft 420 kts 259°
2026-04-24 22:05 33.46815 -96.58295 37822 ft 419 kts 259°
2026-04-24 22:05 33.45466 -96.65075 37824 ft 418 kts 259°
2026-04-24 22:06 33.44117 -96.71838 37815 ft 417 kts 259°
2026-04-24 22:06 33.42765 -96.78587 37819 ft 416 kts 259°
2026-04-24 22:07 33.41413 -96.85318 37811 ft 415 kts 259°
2026-04-24 22:07 33.40061 -96.92031 37812 ft 415 kts 259°
2026-04-24 22:08 33.38708 -96.98734 37813 ft 414 kts 259°
2026-04-24 22:08 33.37354 -97.05414 37809 ft 412 kts 259°
2026-04-24 22:09 33.36000 -97.12077 37813 ft 412 kts 259°
2026-04-24 22:09 33.34647 -97.18726 37802 ft 411 kts 259°
2026-04-24 22:10 33.33291 -97.25361 37808 ft 410 kts 259°
2026-04-24 22:10 33.31932 -97.31981 37811 ft 410 kts 259°
2026-04-24 22:11 33.30571 -97.38599 37817 ft 410 kts 259°
2026-04-24 22:11 33.29209 -97.45210 37821 ft 410 kts 259°
2026-04-24 22:12 33.27844 -97.51816 37831 ft 409 kts 259°
2026-04-24 22:12 33.26475 -97.58410 37841 ft 409 kts 259°
2026-04-24 22:13 33.25104 -97.65008 37840 ft 409 kts 259°
2026-04-24 22:13 33.23727 -97.71604 37838 ft 409 kts 259°
2026-04-24 22:14 33.22358 -97.78151 37837 ft 409 kts 259°
2026-04-24 22:14 33.20976 -97.84736 37841 ft 409 kts 259°
2026-04-24 22:15 33.19592 -97.91320 37841 ft 409 kts 259°
2026-04-24 22:15 33.18203 -97.97903 37841 ft 409 kts 259°
2026-04-24 22:16 33.16812 -98.04477 37845 ft 408 kts 259°
2026-04-24 22:16 33.15657 -98.09921 37839 ft 406 kts 259°
2026-04-24 22:17 33.14271 -98.16442 37826 ft 405 kts 259°
2026-04-24 22:17 33.12889 -98.22934 37829 ft 403 kts 259°
2026-04-24 22:18 33.11505 -98.29404 37828 ft 402 kts 259°
2026-04-24 22:18 33.10121 -98.35856 37828 ft 401 kts 259°
2026-04-24 22:19 33.08735 -98.42301 37833 ft 401 kts 259°
2026-04-24 22:19 33.07347 -98.48748 37830 ft 401 kts 259°
2026-04-24 22:20 33.05956 -98.55188 37831 ft 401 kts 258°
2026-04-24 22:20 33.04561 -98.61625 37828 ft 401 kts 259°
2026-04-24 22:21 33.03161 -98.68067 37832 ft 401 kts 258°
2026-04-24 22:21 33.01759 -98.74499 37830 ft 401 kts 258°
2026-04-24 22:22 33.00355 -98.80928 37831 ft 401 kts 258°
2026-04-24 22:22 32.98960 -98.87301 37837 ft 400 kts 258°
2026-04-24 22:23 32.97552 -98.93716 37839 ft 400 kts 258°
2026-04-24 22:23 32.96140 -99.00122 37842 ft 400 kts 258°
2026-04-24 22:24 32.94725 -99.06527 37848 ft 400 kts 258°
2026-04-24 22:24 32.93311 -99.12927 37851 ft 400 kts 258°
2026-04-24 22:25 32.91892 -99.19320 37845 ft 399 kts 258°
2026-04-24 22:25 32.90470 -99.25706 37848 ft 399 kts 258°
2026-04-24 22:26 32.89047 -99.32083 37852 ft 398 kts 258°
2026-04-24 22:26 32.87624 -99.38440 37852 ft 397 kts 258°
2026-04-24 22:27 32.86202 -99.44786 37858 ft 397 kts 258°
2026-04-24 22:27 32.84778 -99.51125 37861 ft 397 kts 258°
2026-04-24 22:28 32.83350 -99.57467 37858 ft 397 kts 258°
2026-04-24 22:28 32.81918 -99.63800 37865 ft 396 kts 258°
2026-04-24 22:29 32.79768 -99.73285 37865 ft 396 kts 258°
2026-04-24 22:29 32.78334 -99.79593 37862 ft 395 kts 258°
2026-04-24 22:30 32.76897 -99.85892 37857 ft 395 kts 258°
2026-04-24 22:30 32.75458 -99.92188 37867 ft 395 kts 258°
2026-04-24 22:31 32.74018 -99.98476 37866 ft 394 kts 258°
2026-04-24 22:31 32.72575 -100.04758 37880 ft 394 kts 258°
2026-04-24 22:32 32.71131 -100.11026 37880 ft 393 kts 258°
2026-04-24 22:32 32.69684 -100.17291 37884 ft 393 kts 258°
2026-04-24 22:33 32.68247 -100.23503 37886 ft 393 kts 258°
2026-04-24 22:33 32.66788 -100.29795 37893 ft 393 kts 258°
2026-04-24 22:34 32.65344 -100.36007 37891 ft 393 kts 258°
2026-04-24 22:34 32.63886 -100.42259 37905 ft 393 kts 258°
2026-04-24 22:35 32.62426 -100.48507 37902 ft 393 kts 258°
2026-04-24 22:35 32.60962 -100.54756 37912 ft 394 kts 258°
2026-04-24 22:36 32.59494 -100.61009 37910 ft 394 kts 258°
2026-04-24 22:36 32.58022 -100.67262 37906 ft 394 kts 258°
2026-04-24 22:37 32.56546 -100.73520 37905 ft 394 kts 258°
2026-04-24 22:37 32.55066 -100.79776 37905 ft 394 kts 258°
2026-04-24 22:38 32.53585 -100.86021 37901 ft 394 kts 258°
2026-04-24 22:38 32.52098 -100.92268 37892 ft 394 kts 258°
2026-04-24 22:39 32.50611 -100.98514 37897 ft 394 kts 258°
2026-04-24 22:39 32.49123 -101.04750 37892 ft 393 kts 257°
2026-04-24 22:40 32.47630 -101.10983 37894 ft 393 kts 257°
2026-04-24 22:40 32.46136 -101.17212 37891 ft 393 kts 257°
2026-04-24 22:41 32.44639 -101.23435 37897 ft 393 kts 257°
2026-04-24 22:41 32.43138 -101.29658 37898 ft 393 kts 257°
2026-04-24 22:42 32.41635 -101.35879 37893 ft 393 kts 257°
2026-04-24 22:42 32.40131 -101.42099 37896 ft 393 kts 257°
2026-04-24 22:43 32.38683 -101.48287 37898 ft 392 kts 260°
2026-04-24 22:43 32.37805 -101.54628 37898 ft 391 kts 264°
2026-04-24 22:44 32.37022 -101.60994 37897 ft 391 kts 263°
2026-04-24 22:44 32.36228 -101.67362 37896 ft 392 kts 263°
2026-04-24 22:45 32.35426 -101.73735 37902 ft 391 kts 263°
2026-04-24 22:45 32.34623 -101.80098 37903 ft 391 kts 263°
2026-04-24 22:46 32.33814 -101.86460 37904 ft 391 kts 263°
2026-04-24 22:46 32.33004 -101.92817 37905 ft 391 kts 263°
2026-04-24 22:47 32.32190 -101.99174 37911 ft 391 kts 263°
2026-04-24 22:47 32.31376 -102.05520 37914 ft 390 kts 263°
2026-04-24 22:48 32.30557 -102.11864 37917 ft 390 kts 263°
2026-04-24 22:48 32.29760 -102.18015 37923 ft 390 kts 263°
2026-04-24 22:49 32.28937 -102.24348 37923 ft 390 kts 263°
2026-04-24 22:49 32.28109 -102.30682 37922 ft 390 kts 263°
2026-04-24 22:50 32.27279 -102.37014 37925 ft 390 kts 263°
2026-04-24 22:50 32.26445 -102.43349 37934 ft 390 kts 263°
2026-04-24 22:51 32.25608 -102.49692 37933 ft 391 kts 263°
2026-04-24 22:51 32.24765 -102.56046 37934 ft 391 kts 263°
2026-04-24 22:52 32.23925 -102.62356 37934 ft 392 kts 263°
2026-04-24 22:52 32.23075 -102.68710 37931 ft 391 kts 263°
2026-04-24 22:53 32.22222 -102.75058 37932 ft 391 kts 263°
2026-04-24 22:53 32.21367 -102.81404 37931 ft 391 kts 263°
2026-04-24 22:54 32.20510 -102.87751 37934 ft 391 kts 263°
2026-04-24 22:54 32.19648 -102.94096 37921 ft 391 kts 263°
2026-04-24 22:55 32.18784 -103.00440 37924 ft 391 kts 263°
2026-04-24 22:55 32.17916 -103.06773 37922 ft 391 kts 263°
2026-04-24 22:56 32.17046 -103.13106 37923 ft 391 kts 263°
2026-04-24 22:56 32.16170 -103.19452 37922 ft 391 kts 263°
2026-04-24 22:57 32.15293 -103.25790 37920 ft 392 kts 263°
2026-04-24 22:57 32.14411 -103.32141 37914 ft 392 kts 263°
2026-04-24 22:58 32.13525 -103.38492 37912 ft 393 kts 263°
2026-04-24 22:58 32.12636 -103.44845 37915 ft 392 kts 263°
2026-04-24 22:59 32.11744 -103.51195 37912 ft 393 kts 263°
2026-04-24 23:00 32.10398 -103.60721 37923 ft 392 kts 263°
2026-04-24 23:00 32.09497 -103.67069 37924 ft 392 kts 263°
2026-04-24 23:01 32.08593 -103.73415 37922 ft 392 kts 263°
2026-04-24 23:01 32.07688 -103.79748 37926 ft 392 kts 263°
2026-04-24 23:02 32.06781 -103.86082 37922 ft 391 kts 263°
2026-04-24 23:02 32.05870 -103.92409 37924 ft 392 kts 263°
2026-04-24 23:03 32.04961 -103.98699 37922 ft 392 kts 263°
2026-04-24 23:03 32.04037 -104.05070 37911 ft 392 kts 263°
2026-04-24 23:04 32.03123 -104.11355 37913 ft 392 kts 263°
2026-04-24 23:04 32.02200 -104.17682 37911 ft 392 kts 263°
2026-04-24 23:05 32.01273 -104.24001 37914 ft 391 kts 263°
2026-04-24 23:05 32.00496 -104.29292 37912 ft 391 kts 263°
2026-04-24 23:06 31.99564 -104.35609 37913 ft 391 kts 263°
2026-04-24 23:06 31.98698 -104.41886 37910 ft 390 kts 265°
2026-04-24 23:07 31.98062 -104.48276 37915 ft 390 kts 265°
2026-04-24 23:07 31.97434 -104.54601 37357 ft 400 kts 265°
2026-04-24 23:07 31.97099 -104.57894 36777 ft 397 kts 265°
2026-04-24 23:08 31.96772 -104.61088 35916 ft 397 kts 265°
2026-04-24 23:08 31.96440 -104.64316 34990 ft 398 kts 264°
2026-04-24 23:08 31.96106 -104.67556 34009 ft 400 kts 264°
2026-04-24 23:08 31.95769 -104.70820 32977 ft 403 kts 264°
2026-04-24 23:09 31.95429 -104.74111 31914 ft 407 kts 264°
2026-04-24 23:09 31.95087 -104.77424 30985 ft 407 kts 264°
2026-04-24 23:09 31.94744 -104.80721 30167 ft 405 kts 264°
2026-04-24 23:09 31.94405 -104.83996 29388 ft 402 kts 264°
2026-04-24 23:10 31.94067 -104.87245 28632 ft 398 kts 264°
2026-04-24 23:10 31.93730 -104.90471 27876 ft 396 kts 264°
2026-04-24 23:10 31.93392 -104.93686 27130 ft 395 kts 264°
2026-04-24 23:10 31.93057 -104.96888 26389 ft 393 kts 264°
2026-04-24 23:11 31.92722 -105.00072 25678 ft 391 kts 264°
2026-04-24 23:11 31.92389 -105.03239 24944 ft 388 kts 264°
2026-04-24 23:11 31.92057 -105.06380 24245 ft 386 kts 264°
2026-04-24 23:11 31.91726 -105.09500 23561 ft 383 kts 264°
2026-04-24 23:12 31.91398 -105.12593 22895 ft 380 kts 264°
2026-04-24 23:12 31.91074 -105.15634 22218 ft 378 kts 264°
2026-04-24 23:12 31.90749 -105.18691 21567 ft 375 kts 264°
2026-04-24 23:12 31.90425 -105.21727 20924 ft 373 kts 263°
2026-04-24 23:13 31.90103 -105.24742 20300 ft 370 kts 263°
2026-04-24 23:13 31.89782 -105.27737 19648 ft 368 kts 263°
2026-04-24 23:13 31.89463 -105.30712 19026 ft 365 kts 263°
2026-04-24 23:13 31.89145 -105.33665 18431 ft 362 kts 263°
2026-04-24 23:14 31.88834 -105.36547 17879 ft 346 kts 263°
2026-04-24 23:14 31.88531 -105.39340 17080 ft 343 kts 263°
2026-04-24 23:14 31.88229 -105.42128 16473 ft 343 kts 263°
2026-04-24 23:14 31.87929 -105.44898 15914 ft 340 kts 263°
2026-04-24 23:15 31.87650 -105.47639 15350 ft 335 kts 266°
2026-04-24 23:15 31.87829 -105.50353 14844 ft 333 kts 280°
2026-04-24 23:15 31.88348 -105.53010 14270 ft 334 kts 281°
2026-04-24 23:15 31.88870 -105.55673 13634 ft 334 kts 281°
2026-04-24 23:16 31.89381 -105.58337 13063 ft 333 kts 281°
2026-04-24 23:16 31.89862 -105.60899 12751 ft 310 kts 281°
2026-04-24 23:16 31.90310 -105.63300 12356 ft 292 kts 281°
2026-04-24 23:16 31.90734 -105.65592 11844 ft 282 kts 281°
2026-04-24 23:17 31.91143 -105.67826 11197 ft 279 kts 281°
2026-04-24 23:17 31.91551 -105.70072 10966 ft 282 kts 281°
2026-04-24 23:17 31.91960 -105.72342 10779 ft 283 kts 281°
2026-04-24 23:17 31.92369 -105.74588 10756 ft 278 kts 281°
2026-04-24 23:18 31.92771 -105.76810 10758 ft 278 kts 281°
2026-04-24 23:18 31.93176 -105.79046 10755 ft 281 kts 281°
2026-04-24 23:18 31.93582 -105.81291 10762 ft 282 kts 281°
2026-04-24 23:18 31.93985 -105.83527 10766 ft 283 kts 281°
2026-04-24 23:19 31.94392 -105.85776 10763 ft 277 kts 280°
2026-04-24 23:19 31.94635 -105.87985 10587 ft 269 kts 272°
2026-04-24 23:19 31.94672 -105.90149 10386 ft 260 kts 269°
2026-04-24 23:19 31.94671 -105.92251 10202 ft 255 kts 269°
2026-04-24 23:20 31.94682 -105.94332 10032 ft 254 kts 270°
2026-04-24 23:20 31.94700 -105.96406 9823 ft 253 kts 269°
2026-04-24 23:20 31.94724 -105.98460 9678 ft 247 kts 270°
2026-04-24 23:20 31.94752 -106.00460 9477 ft 241 kts 270°
2026-04-24 23:21 31.94785 -106.02391 9310 ft 231 kts 270°
2026-04-24 23:21 31.94812 -106.04271 9128 ft 228 kts 270°
2026-04-24 23:21 31.94842 -106.06129 8948 ft 226 kts 270°
2026-04-24 23:21 31.94874 -106.07973 8776 ft 225 kts 270°
2026-04-24 23:22 31.94903 -106.09814 8539 ft 226 kts 270°
2026-04-24 23:22 31.94932 -106.11679 8277 ft 229 kts 270°
2026-04-24 23:22 31.94960 -106.13518 8064 ft 219 kts 270°
2026-04-24 23:22 31.94987 -106.15278 7782 ft 212 kts 270°
2026-04-24 23:23 31.95015 -106.16995 7555 ft 210 kts 270°
2026-04-24 23:23 31.94825 -106.18657 7289 ft 203 kts 246°
2026-04-24 23:23 31.94090 -106.20035 7126 ft 197 kts 239°
2026-04-24 23:23 31.93330 -106.21378 7073 ft 199 kts 237°
2026-04-24 23:24 31.92489 -106.22686 7037 ft 202 kts 233°
2026-04-24 23:24 31.91607 -106.23943 6761 ft 191 kts 232°
2026-04-24 23:24 31.90799 -106.25072 6546 ft 171 kts 233°
2026-04-24 23:24 31.90069 -106.26097 6312 ft 154 kts 233°
2026-04-24 23:25 31.89396 -106.27046 6133 ft 153 kts 234°
2026-04-24 23:25 31.88722 -106.27994 5928 ft 149 kts 233°
2026-04-24 23:25 31.88087 -106.28884 5715 ft 141 kts 233°
2026-04-24 23:25 31.87457 -106.29767 5552 ft 141 kts 233°
2026-04-24 23:26 31.86824 -106.30656 5369 ft 147 kts 233°
2026-04-24 23:26 31.86160 -106.31587 5175 ft 149 kts 233°
2026-04-24 23:26 31.85505 -106.32503 4956 ft 143 kts 233°
2026-04-24 23:26 31.84872 -106.33392 4780 ft 142 kts 233°
2026-04-24 23:27 31.84232 -106.34288 4592 ft 143 kts 232°
2026-04-24 23:27 31.83592 -106.35183 4402 ft 143 kts 232°
2026-04-24 23:27 31.82952 -106.36073 4229 ft 143 kts 234°
2026-04-24 23:27 31.82347 -106.36935 4021 ft 133 kts 232°
2026-04-24 23:28 31.81759 -106.37755 3953 ft 120 kts 230°
2026-04-24 23:28 31.81318 -106.38368 3952 ft 76 kts 230°
2026-04-24 23:28 31.81014 -106.38792 3954 ft 56 kts 230°
2026-04-24 23:28 31.80851 -106.39011 3952 ft 20 kts 214°
2026-04-24 23:29 31.80745 -106.38963 3951 ft 17 kts 140°
2026-04-24 23:29 31.80672 -106.38862 3951 ft 15 kts 83°
2026-04-24 23:29 31.80738 -106.38768 3951 ft 15 kts 43°
2026-04-24 23:29 31.80814 -106.38684 3951 ft 15 kts 43°
2026-04-24 23:30 31.80891 -106.38582 3951 ft 17 kts 50°
2026-04-24 23:30 31.80969 -106.38474 3951 ft 17 kts 50°
2026-04-24 23:30 31.81047 -106.38364 3951 ft 18 kts 50°
2026-04-24 23:30 31.81127 -106.38253 3951 ft 18 kts 50°
2026-04-24 23:31 31.81208 -106.38140 3951 ft 18 kts 50°
2026-04-24 23:31 31.81291 -106.38025 3951 ft 18 kts 50°
2026-04-24 23:31 31.81374 -106.37909 3951 ft 19 kts 50°
2026-04-24 23:31 31.81458 -106.37791 3951 ft 19 kts 50°
2026-04-24 23:32 31.81542 -106.37673 3951 ft 19 kts 50°
2026-04-24 23:32 31.81628 -106.37555 3951 ft 19 kts 50°
2026-04-24 23:32 31.81713 -106.37436 3952 ft 19 kts 50°
2026-04-24 23:32 31.81800 -106.37314 3951 ft 20 kts 50°
2026-04-24 23:33 31.81888 -106.37192 3951 ft 20 kts 50°
2026-04-24 23:33 31.81928 -106.37106 3951 ft 17 kts 93°
2026-04-24 23:33 31.81835 -106.36978 3951 ft 15 kts 131°
2026-04-24 23:33 31.81773 -106.36913 3951 ft 0 kts 141°